Location: Oberkirch
(48.5323°N, 8.0787°E)
Time: 16:59:22
(UTC+00:00)

Meteor 1-24 Rocket - Pass Details

Date: 08 November 2025
Orbit: 789 x 925 km, 81.3° (Epoch: 12 December)

Event Time Altitude Azimuth Distance (km) Brightness Sun altitude
Rises 05:25:26 0° 219° (SW) 3,487 6.6 -10.1°
Reaches altitude 10° 05:28:11 10° 229° (SW) 2,531 5.9 -9.7°
Maximum altitude 05:33:17 32° 292° (WNW) 1,429 4.4 -8.9°
Drops below altitude 10° 05:38:17 10° 355° (N) 2,462 5.9 -8.1°
Sets 05:40:55 0° 6° (N) 3,379 6.7 -7.7°
